Regional Weather Roundup
Issued by NWS

Home | Current Version | Previous Version | Graphics & Text | Print | Product List | Glossary On
Versions: 1 2 3 4 5 6 7 8 9 10 11 12 13 14 15 16 17 18 19 20 21 22 23 24 25 26 27 28 29 30 31 32 33 34 35 36 37 38 39 40 41 42 43 44 45 46 47 48 49 50
000
ASUS43 KBIS 032102
RWRND

NORTH DAKOTA REGIONAL WEATHER ROUNDUP
NATIONAL WEATHER SERVICE BISMARCK ND
400 PM CDT FRI JUL 03 2015

NOTE: "FAIR" INDICATES FEW OR NO CLOUDS BELOW 12,000 FEET WITH NO
SIGNIFICANT WEATHER AND/OR OBSTRUCTIONS TO VISIBILITY.


NDZ001>003-009>011-017-032200-
NORTHWEST NORTH DAKOTA

CITY           SKY/WX    TMP DP  RH WIND       PRES   REMARKS
WILLISTON      SUNNY     85  55  35 VRB3      29.93F
MINOT          CLOUDY    81  62  52 VRB3      29.93F HAZE
$$

NDZ018>021-031>035-040>046-032200-
SOUTHWEST NORTH DAKOTA

CITY           SKY/WX    TMP DP  RH WIND       PRES   REMARKS
BISMARCK       MOSUNNY   81  63  54 CALM      29.95F HAZE
DICKINSON      PTSUNNY   79  61  53 SE8       29.96F
GARRISON         N/A     79  64  60 S6        29.95F
HETTINGER ARPT MOSUNNY   81  60  48 S8        29.99F
$$

NDZ004>008-012>016-024-026-027-054-032200-
NORTHEAST NORTH DAKOTA

CITY           SKY/WX    TMP DP  RH WIND       PRES   REMARKS
GRAND FORKS    MOSUNNY   82  58  43 N7        29.91S HAZE
GRND FRKS AFB  MOSUNNY   80  62  53 NE5       29.92S
DEVILS LAKE    MOSUNNY   81  57  44 E3        29.93F
$$

NDZ022-023-025-028>030-036>039-047>053-032200-
SOUTHEAST NORTH DAKOTA

CITY           SKY/WX    TMP DP  RH WIND       PRES   REMARKS
FARGO          MOSUNNY   83  64  52 N6        29.91F HAZE
JAMESTOWN      CLOUDY    82  55  39 CALM      29.94F HAZE
$$



USA.gov is the U.S. government's official web portal to all federal, state and local government web resources and services.